sat.trackr.live / text

‹ back to catalog

STARLINK-1327

NORAD 45555 · 2020-025AA

PAYLOAD ACTIVE UNKNOWN

§ Identity

Operator
Country
US
Launch date
2020-04-22
Launch site
AFETR
Launch vehicle
Mass (kg)
RCS (m²)

Purposes: comms

External: N2YO · Heavens-Above · Gunter

§ Orbital elements

Epoch: 2026-05-25T02:59:34.240704Z

Period
91.97 min
Inclination
53.0420°
Eccentricity
0.0005223
Mean motion
15.65656562 rev/d
Perigee alt
367.8 km
Apogee alt
374.9 km
Semi-major
6,749.5 km
B*
4.4541e-4
RAAN
54.0079°
Arg perigee
46.0102°
Mean anomaly
314.1342°
Rev number
33,758

§ Raw data

STARLINK-13271 45555U 20025AA  26145.12470186  .00045469  00000+0  44541-3 0  99982 45555  53.0420  54.0079 0005223  46.0102 314.1342 15.65656562337581

JSON: /api/v1/satellites/45555 · /tle

For live sub-satellite position, see the globe view (requires WebGL).

§ Visibility from observer

Set your observer location to see the next 7 days of passes ≥ 10°. The values pass through the URL so the page stays shareable.

No JS? Fill the form by hand. The geolocation button needs JavaScript.